| time (UTC) | temp F | wind direction | speed MPH | gust MPH | rain 1hr in | rain 24hr in | rain mn in | humidity % | barometer mb |
| 20260502152007 | 67 | 270 | 3.0 | 5.0 | 0.00 | 0.00 | 0.00 | 47 | 1020.9 |
| 20260502151504 | 68 | 292 | 1.0 | 2.0 | 0.00 | 0.00 | 0.00 | 51 | 1021.2 |
| 20260502151005 | 67 | 270 | 3.0 | 4.0 | 0.00 | 0.00 | 0.00 | 52 | 1021.2 |
| 20260502150508 | 66 | 270 | 4.0 | 6.0 | 0.00 | 0.00 | 0.00 | 53 | 1021.2 |
| 20260502130505 | 53 | 292 | 4.0 | 5.0 | 0.00 | 0.00 | 0.00 | 100 | 1024.6 |
| 20260502123507 | 49 | 315 | 3.0 | 4.0 | 0.00 | 0.00 | 0.00 | 100 | 1024.6 |
| 20260502123004 | 49 | 315 | 5.0 | 5.0 | 0.00 | 0.00 | 0.00 | 100 | 1024.6 |
| 20260502122533 | 49 | 315 | 5.0 | 6.0 | 0.00 | 0.00 | 0.00 | 100 | 1024.6 |
| 20260502122004 | 49 | 315 | 5.0 | 6.0 | 0.00 | 0.00 | 0.00 | 100 | 1024.6 |
| 20260502121507 | 49 | 315 | 5.0 | 7.0 | 0.00 | 0.00 | 0.00 | 100 | 1024.6 |
| 20260502121004 | 48 | 315 | 5.0 | 6.0 | 0.00 | 0.00 | 0.00 | 100 | 1024.6 |
| 20260502120507 | 48 | 315 | 5.0 | 5.0 | 0.00 | 0.00 | 0.00 | 100 | 1024.6 |
| 20260502115507 | 48 | 315 | 3.0 | 5.0 | 0.00 | 0.00 | 0.00 | 100 | 1024.6 |
| 20260502115004 | 48 | 315 | 3.0 | 4.0 | 0.00 | 0.00 | 0.00 | 100 | 1024.6 |
| 20260502114507 | 48 | 315 | 4.0 | 5.0 | 0.00 | 0.00 | 0.00 | 100 | 1024.6 |
| 20260502114004 | 48 | 315 | 4.0 | 5.0 | 0.00 | 0.00 | 0.00 | 100 | 1024.6 |
| 20260502113507 | 48 | 315 | 4.0 | 5.0 | 0.00 | 0.00 | 0.00 | 100 | 1024.3 |
| 20260502113007 | 48 | 315 | 3.0 | 3.0 | 0.00 | 0.00 | 0.00 | 100 | 1024.3 |
| 20260502112504 | 48 | 315 | 3.0 | 4.0 | 0.00 | 0.00 | 0.00 | 100 | 1024.3 |
| 20260502112007 | 48 | 315 | 6.0 | 7.0 | 0.00 | 0.00 | 0.00 | 100 | 1024.3 |
| 20260502111504 | 48 | 315 | 6.0 | 7.0 | 0.00 | 0.00 | 0.00 | 100 | 1024.3 |
| 20260502111006 | 49 | 315 | 6.0 | 7.0 | 0.00 | 0.00 | 0.00 | 100 | 1024.3 |
| 20260502110503 | 49 | 315 | 5.0 | 7.0 | 0.00 | 0.00 | 0.00 | 100 | 1023.9 |
| 20260502110006 | 49 | 292 | 4.0 | 6.0 | 0.00 | 0.00 | 0.00 | 100 | 1023.9 |
| 20260502105503 | 49 | 292 | 5.0 | 7.0 | 0.00 | 0.00 | 0.00 | 100 | 1023.9 |
| 20260502105006 | 49 | 292 | 4.0 | 5.0 | 0.00 | 0.00 | 0.00 | 100 | 1023.9 |
| 20260502104503 | 49 | 292 | 5.0 | 6.0 | 0.00 | 0.00 | 0.00 | 100 | 1023.9 |
| 20260502104006 | 49 | 292 | 3.0 | 4.0 | 0.00 | 0.00 | 0.00 | 100 | 1023.9 |
| 20260502103503 | 49 | 292 | 5.0 | 6.0 | 0.00 | 0.00 | 0.00 | 100 | 1023.9 |
| 20260502103006 | 49 | 270 | 7.0 | 7.0 | 0.00 | 0.00 | 0.00 | 100 | 1023.9 |
| 20260502102503 | 49 | 270 | 6.0 | 7.0 | 0.00 | 0.00 | 0.00 | 100 | 1023.6 |
| 20260502102026 | 49 | 270 | 7.0 | 7.0 | 0.00 | 0.00 | 0.00 | 100 | 1023.6 |
| 20260502101503 | 49 | 292 | 7.0 | 8.0 | 0.00 | 0.00 | 0.00 | 100 | 1023.2 |
| 20260502101006 | 49 | 292 | 8.0 | 8.0 | 0.00 | 0.00 | 0.00 | 100 | 1023.2 |
| 20260502100503 | 49 | 270 | 7.0 | 8.0 | 0.00 | 0.00 | 0.00 | 100 | 1023.2 |
| 20260502091503 | 50 | 315 | 5.0 | 5.0 | 0.00 | 0.00 | 0.00 | 100 | 1022.9 |
| 20260502091007 | 50 | 315 | 6.0 | 7.0 | 0.00 | 0.00 | 0.00 | 100 | 1022.9 |
| 20260502090504 | 51 | 315 | 6.0 | 7.0 | 0.00 | 0.00 | 0.00 | 100 | 1022.9 |
| 20260502071508 | 53 | 270 | 5.0 | 5.0 | 0.00 | 0.00 | 0.00 | 100 | 1023.2 |
| 20260502071004 | 53 | 270 | 5.0 | 5.0 | 0.00 | 0.00 | 0.00 | 100 | 1023.2 |
| 20260502070507 | 53 | 270 | 5.0 | 6.0 | 0.00 | 0.00 | 0.00 | 100 | 1022.9 |
| 20260502070004 | 53 | 270 | 5.0 | 5.0 | 0.00 | 0.00 | 0.00 | 100 | 1022.9 |
| 20260502065507 | 53 | 270 | 5.0 | 5.0 | 0.00 | 0.00 | 0.00 | 100 | 1022.9 |
| 20260502065009 | 53 | 270 | 4.0 | 5.0 | 0.00 | 0.00 | 0.00 | 100 | 1022.9 |
| 20260502064505 | 54 | 270 | 4.0 | 5.0 | 0.00 | 0.00 | 0.00 | 100 | 1022.6 |
| 20260502064008 | 54 | 270 | 5.0 | 6.0 | 0.00 | 0.00 | 0.00 | 100 | 1022.6 |
| 20260502063508 | 54 | 270 | 5.0 | 6.0 | 0.00 | 0.00 | 0.00 | 100 | 1022.6 |
| 20260502063006 | 54 | 270 | 6.0 | 6.0 | 0.00 | 0.00 | 0.00 | 100 | 1022.6 |
| 20260502062502 | 54 | 270 | 6.0 | 6.0 | 0.00 | 0.00 | 0.00 | 100 | 1022.6 |
| 20260502062004 | 55 | 270 | 5.0 | 5.0 | 0.00 | 0.00 | 0.00 | 100 | 1022.6 |
| 20260502061507 | 55 | 270 | 5.0 | 5.0 | 0.00 | 0.00 | 0.00 | 100 | 1022.6 |
| 20260502061030 | 55 | 270 | 5.0 | 6.0 | 0.00 | 0.00 | 0.00 | 100 | 1022.6 |
| 20260502060506 | 55 | 270 | 4.0 | 5.0 | 0.00 | 0.00 | 0.00 | 100 | 1022.6 |
| 20260502060004 | 55 | 270 | 5.0 | 6.0 | 0.00 | 0.00 | 0.00 | 100 | 1022.6 |
| 20260502055506 | 56 | 247 | 5.0 | 6.0 | 0.00 | 0.00 | 0.00 | 100 | 1022.6 |
| 20260502055004 | 56 | 225 | 4.0 | 5.0 | 0.00 | 0.00 | 0.00 | 100 | 1022.6 |
| 20260502054507 | 56 | 225 | 4.0 | 5.0 | 0.00 | 0.00 | 0.00 | 100 | 1022.6 |
| 20260502054003 | 56 | 225 | 5.0 | 5.0 | 0.00 | 0.00 | 0.00 | 100 | 1022.6 |
| 20260502053506 | 56 | 225 | 4.0 | 5.0 | 0.00 | 0.00 | 0.00 | 100 | 1022.2 |
| 20260502053003 | 56 | 225 | 5.0 | 5.0 | 0.00 | 0.00 | 0.00 | 100 | 1022.2 |
| 20260502052506 | 56 | 225 | 5.0 | 6.0 | 0.00 | 0.00 | 0.00 | 100 | 1021.9 |
| 20260502052007 | 55 | 202 | 5.0 | 6.0 | 0.00 | 0.00 | 0.00 | 100 | 1021.9 |
| 20260502051503 | 55 | 202 | 6.0 | 7.0 | 0.00 | 0.00 | 0.00 | 100 | 1021.9 |
| 20260502051007 | 55 | 180 | 7.0 | 8.0 | 0.00 | 0.00 | 0.00 | 100 | 1021.9 |
| 20260502050504 | 55 | 180 | 5.0 | 6.0 | 0.00 | 0.00 | 0.00 | 100 | 1021.9 |
| 20260502050006 | 56 | 180 | 8.0 | 9.0 | 0.00 | 0.00 | 0.00 | 100 | 1021.9 |
| 20260502045503 | 56 | 180 | 6.0 | 7.0 | 0.00 | 0.00 | 0.00 | 100 | 1021.9 |
| 20260502045007 | 56 | 180 | 2.0 | 5.0 | 0.00 | 0.00 | 0.00 | 99 | 1021.9 |
| 20260502044504 | 57 | 270 | 5.0 | 6.0 | 0.00 | 0.00 | 0.00 | 99 | 1021.9 |
| 20260502044006 | 57 | 292 | 5.0 | 5.0 | 0.00 | 0.00 | 0.00 | 98 | 1021.9 |
| 20260502043503 | 57 | 292 | 5.0 | 6.0 | 0.00 | 0.00 | 0.00 | 96 | 1021.9 |
| 20260502043007 | 57 | 292 | 4.0 | 4.0 | 0.00 | 0.00 | 0.00 | 94 | 1021.9 |
| 20260502042504 | 58 | 292 | 6.0 | 6.0 | 0.00 | 0.00 | 0.00 | 93 | 1021.5 |
| 20260502042007 | 57 | 315 | 6.0 | 7.0 | 0.00 | 0.00 | 0.00 | 96 | 1021.5 |
| 20260502041503 | 57 | 315 | 3.0 | 4.0 | 0.00 | 0.00 | 0.00 | 94 | 1021.5 |
| 20260502041006 | 58 | 315 | 2.0 | 3.0 | 0.00 | 0.00 | 0.00 | 94 | 1021.5 |
| 20260502040535 | 58 | 315 | 4.0 | 5.0 | 0.00 | 0.00 | 0.00 | 94 | 1021.2 |
| 20260502040009 | 58 | 337 | 5.0 | 6.0 | 0.00 | 0.00 | 0.00 | 95 | 1021.2 |
| 20260502035505 | 59 | 337 | 5.0 | 6.0 | 0.00 | 0.00 | 0.00 | 94 | 1021.2 |
| 20260502035003 | 59 | 337 | 5.0 | 5.0 | 0.00 | 0.00 | 0.00 | 93 | 1021.2 |
| 20260502034505 | 59 | 337 | 4.0 | 4.0 | 0.00 | 0.00 | 0.00 | 94 | 1021.2 |
| 20260502034003 | 59 | 337 | 5.0 | 6.0 | 0.00 | 0.00 | 0.00 | 94 | 1021.2 |
| 20260502033506 | 59 | 292 | 4.0 | 5.0 | 0.00 | 0.00 | 0.00 | 93 | 1021.2 |
| 20260502033009 | 59 | 292 | 4.0 | 4.0 | 0.00 | 0.00 | 0.00 | 91 | 1021.2 |
| 20260502032503 | 59 | 292 | 3.0 | 3.0 | 0.00 | 0.00 | 0.00 | 90 | 1021.2 |
| 20260502032007 | 59 | 292 | 3.0 | 3.0 | 0.00 | 0.00 | 0.00 | 89 | 1021.2 |
| 20260502031504 | 60 | 292 | 4.0 | 4.0 | 0.00 | 0.00 | 0.00 | 89 | 1021.2 |
| 20260502031007 | 60 | 292 | 5.0 | 5.0 | 0.00 | 0.00 | 0.00 | 87 | 1021.2 |
| 20260502030504 | 60 | 292 | 3.0 | 4.0 | 0.00 | 0.00 | 0.00 | 87 | 1020.5 |
| 20260502030007 | 60 | 292 | 4.0 | 4.0 | 0.00 | 0.00 | 0.00 | 87 | 1020.5 |
| 20260502025504 | 60 | 292 | 2.0 | 3.0 | 0.00 | 0.00 | 0.00 | 89 | 1020.5 |
| 20260502025007 | 60 | 292 | 4.0 | 4.0 | 0.00 | 0.00 | 0.00 | 89 | 1020.5 |
| 20260502024504 | 60 | 292 | 4.0 | 4.0 | 0.00 | 0.00 | 0.00 | 89 | 1020.5 |
| 20260502024006 | 60 | 292 | 5.0 | 5.0 | 0.00 | 0.00 | 0.00 | 89 | 1020.5 |
| 20260502023504 | 60 | 270 | 6.0 | 6.0 | 0.00 | 0.00 | 0.00 | 87 | 1020.2 |
| 20260502023007 | 60 | 270 | 5.0 | 5.0 | 0.00 | 0.00 | 0.00 | 85 | 1020.2 |
| 20260502022504 | 60 | 270 | 4.0 | 4.0 | 0.00 | 0.00 | 0.00 | 84 | 1019.9 |
| 20260502022007 | 61 | 270 | 4.0 | 5.0 | 0.00 | 0.00 | 0.00 | 83 | 1019.9 |
| 20260502021503 | 61 | 270 | 4.0 | 4.0 | 0.00 | 0.00 | 0.00 | 80 | 1019.9 |
| 20260502021007 | 61 | 247 | 3.0 | 3.0 | 0.00 | 0.00 | 0.00 | 76 | 1019.9 |
| 20260502020503 | 61 | 247 | 3.0 | 3.0 | 0.00 | 0.00 | 0.00 | 71 | 1019.5 |
| 20260502020032 | 61 | 247 | 0.0 | 0.0 | 0.00 | 0.00 | 0.00 | 70 | 1019.5 |
| 20260502015508 | 62 | 247 | 1.0 | 2.0 | 0.00 | 0.00 | 0.00 | 70 | 1019.5 |
| 20260502015006 | 62 | 247 | 2.0 | 2.0 | 0.00 | 0.00 | 0.00 | 70 | 1019.5 |
| 20260502014503 | 62 | 247 | 3.0 | 3.0 | 0.00 | 0.00 | 0.00 | 70 | 1019.2 |
| 20260502014005 | 62 | 247 | 3.0 | 3.0 | 0.00 | 0.00 | 0.00 | 72 | 1019.2 |
| 20260502013503 | 62 | 247 | 4.0 | 4.0 | 0.00 | 0.00 | 0.00 | 72 | 1018.8 |
| 20260502013006 | 61 | 135 | 0.0 | 0.0 | 0.00 | 0.00 | 0.00 | 71 | 1018.8 |
| 20260502012503 | 62 | 135 | 0.0 | 0.0 | 0.00 | 0.00 | 0.00 | 71 | 1018.5 |
| 20260502012006 | 62 | 135 | 0.0 | 0.0 | 0.00 | 0.00 | 0.00 | 71 | 1018.5 |
| 20260502011502 | 62 | 135 | 0.0 | 0.0 | 0.00 | 0.00 | 0.00 | 71 | 1018.5 |
| 20260502011006 | 62 | 135 | 0.0 | 0.0 | 0.00 | 0.00 | 0.00 | 70 | 1018.5 |
| 20260502010511 | 62 | 135 | 0.0 | 0.0 | 0.00 | 0.00 | 0.00 | 70 | 1018.2 |
| 20260502010006 | 62 | 180 | 0.0 | 0.0 | 0.00 | 0.00 | 0.00 | 70 | 1018.2 |
| 20260502005503 | 63 | 180 | 0.0 | 0.0 | 0.00 | 0.00 | 0.00 | 69 | 1017.8 |
| 20260502005005 | 63 | 180 | 0.0 | 0.0 | 0.00 | 0.00 | 0.00 | 68 | 1017.8 |
| 20260502004503 | 63 | 180 | 0.0 | 0.0 | 0.00 | 0.00 | 0.00 | 66 | 1017.8 |
| 20260502004002 | 63 | 180 | 0.0 | 0.0 | 0.00 | 0.00 | 0.00 | 65 | 1017.8 |
| 20260502003503 | 63 | 180 | 0.0 | 0.0 | 0.00 | 0.00 | 0.00 | 64 | 1017.8 |
| 20260502003006 | 63 | 180 | 0.0 | 0.0 | 0.00 | 0.00 | 0.00 | 63 | 1017.8 |
| 20260502002503 | 63 | 180 | 0.0 | 0.0 | 0.00 | 0.00 | 0.00 | 62 | 1017.5 |
| 20260502002007 | 63 | 180 | 0.0 | 0.0 | 0.00 | 0.00 | 0.00 | 62 | 1017.5 |
| 20260502001504 | 63 | 180 | 0.0 | 0.0 | 0.00 | 0.00 | 0.00 | 61 | 1017.1 |
| 20260502001007 | 63 | 180 | 0.0 | 0.0 | 0.00 | 0.00 | 0.00 | 62 | 1017.1 |
| 20260502000503 | 63 | 180 | 0.0 | 0.0 | 0.00 | 0.00 | 0.00 | 62 | 1017.1 |
| 20260502000007 | 64 | 180 | 0.0 | 0.0 | 0.00 | 0.00 | 0.00 | 61 | 1017.1 |
| 20260501235536 | 64 | 180 | 0.0 | 0.0 | 0.00 | 0.00 | 0.00 | 60 | 1017.1 |
| 20260501235006 | 64 | 180 | 2.0 | 3.0 | 0.00 | 0.00 | 0.00 | 60 | 1017.1 |
| 20260501234504 | 64 | 157 | 1.0 | 3.0 | 0.00 | 0.00 | 0.00 | 60 | 1016.8 |
| 20260501234004 | 64 | 157 | 3.0 | 4.0 | 0.00 | 0.00 | 0.00 | 60 | 1016.8 |
| 20260501233506 | 64 | 157 | 4.0 | 6.0 | 0.00 | 0.00 | 0.00 | 60 | 1016.5 |
| 20260501233004 | 64 | 67 | 4.0 | 5.0 | 0.00 | 0.00 | 0.00 | 60 | 1016.5 |
| 20260501232506 | 64 | 67 | 3.0 | 4.0 | 0.00 | 0.00 | 0.00 | 61 | 1016.5 |
| 20260501232004 | 64 | 67 | 3.0 | 4.0 | 0.00 | 0.00 | 0.00 | 60 | 1016.5 |
| 20260501231505 | 64 | 67 | 5.0 | 6.0 | 0.00 | 0.00 | 0.00 | 59 | 1016.5 |
| 20260501231007 | 64 | 67 | 5.0 | 5.0 | 0.00 | 0.00 | 0.00 | 60 | 1016.5 |
| 20260501230504 | 64 | 67 | 4.0 | 4.0 | 0.00 | 0.00 | 0.00 | 60 | 1016.5 |
| 20260501230007 | 64 | 67 | 5.0 | 6.0 | 0.00 | 0.00 | 0.00 | 59 | 1016.5 |
| 20260501225505 | 64 | 90 | 4.0 | 5.0 | 0.00 | 0.00 | 0.00 | 59 | 1016.5 |
| 20260501225007 | 64 | 112 | 4.0 | 6.0 | 0.00 | 0.00 | 0.00 | 59 | 1016.5 |
| 20260501224503 | 64 | 67 | 5.0 | 6.0 | 0.00 | 0.00 | 0.00 | 59 | 1016.5 |
| 20260501224006 | 64 | 67 | 6.0 | 9.0 | 0.00 | 0.00 | 0.00 | 59 | 1016.5 |
| 20260501223502 | 64 | 90 | 6.0 | 7.0 | 0.00 | 0.00 | 0.00 | 60 | 1016.5 |
| 20260501223005 | 64 | 67 | 5.0 | 6.0 | 0.00 | 0.00 | 0.00 | 60 | 1016.5 |
| 20260501222502 | 64 | 90 | 6.0 | 7.0 | 0.00 | 0.00 | 0.00 | 62 | 1016.5 |
| 20260501222006 | 64 | 90 | 5.0 | 6.0 | 0.00 | 0.00 | 0.00 | 59 | 1016.5 |
| 20260501221502 | 64 | 67 | 6.0 | 8.0 | 0.00 | 0.00 | 0.00 | 59 | 1015.8 |
| 20260501221003 | 64 | 67 | 4.0 | 5.0 | 0.00 | 0.00 | 0.00 | 62 | 1015.8 |
| 20260501220505 | 64 | 67 | 6.0 | 8.0 | 0.00 | 0.00 | 0.00 | 60 | 1015.8 |
| 20260501220002 | 65 | 67 | 6.0 | 8.0 | 0.00 | 0.00 | 0.00 | 60 | 1015.8 |
| 20260501215505 | 65 | 67 | 5.0 | 7.0 | 0.00 | 0.00 | 0.00 | 59 | 1015.8 |
| 20260501215034 | 65 | 90 | 6.0 | 8.0 | 0.00 | 0.00 | 0.00 | 59 | 1015.8 |
| 20260501214504 | 65 | 67 | 5.0 | 6.0 | 0.00 | 0.00 | 0.00 | 60 | 1016.5 |
| 20260501214007 | 64 | 67 | 5.0 | 7.0 | 0.00 | 0.00 | 0.00 | 59 | 1016.5 |
| 20260501213504 | 64 | 67 | 9.0 | 10.0 | 0.00 | 0.00 | 0.00 | 59 | 1016.5 |
| 20260501213007 | 64 | 90 | 6.0 | 8.0 | 0.00 | 0.00 | 0.00 | 60 | 1016.5 |
| 20260501212505 | 64 | 90 | 8.0 | 10.0 | 0.00 | 0.00 | 0.00 | 60 | 1016.8 |
| 20260501212007 | 64 | 67 | 6.0 | 8.0 | 0.00 | 0.00 | 0.00 | 61 | 1016.8 |
| 20260501211504 | 64 | 67 | 8.0 | 10.0 | 0.00 | 0.00 | 0.00 | 60 | 1016.8 |
| 20260501211008 | 64 | 67 | 6.0 | 8.0 | 0.00 | 0.00 | 0.00 | 60 | 1016.8 |
| 20260501210505 | 64 | 45 | 8.0 | 11.0 | 0.00 | 0.00 | 0.00 | 61 | 1017.1 |
| 20260501210008 | 64 | 112 | 7.0 | 8.0 | 0.00 | 0.00 | 0.00 | 62 | 1017.1 |
| 20260501205503 | 64 | 67 | 8.0 | 9.0 | 0.00 | 0.00 | 0.00 | 62 | 1017.1 |
| 20260501205006 | 64 | 22 | 5.0 | 7.0 | 0.00 | 0.00 | 0.00 | 62 | 1017.1 |
| 20260501204506 | 64 | 67 | 6.0 | 8.0 | 0.00 | 0.00 | 0.00 | 62 | 1017.5 |
| 20260501204003 | 63 | 45 | 8.0 | 10.0 | 0.00 | 0.00 | 0.00 | 62 | 1017.5 |
| 20260501203507 | 63 | 22 | 8.0 | 10.0 | 0.00 | 0.00 | 0.00 | 61 | 1017.8 |
| 20260501203002 | 63 | 67 | 7.0 | 10.0 | 0.00 | 0.00 | 0.00 | 62 | 1017.8 |
| 20260501202505 | 63 | 67 | 10.0 | 13.0 | 0.00 | 0.00 | 0.00 | 60 | 1017.5 |
| 20260501202002 | 63 | 67 | 13.0 | 17.0 | 0.00 | 0.00 | 0.00 | 60 | 1017.5 |
| 20260501201505 | 63 | 45 | 9.0 | 12.0 | 0.00 | 0.00 | 0.00 | 60 | 1017.5 |
| 20260501201002 | 63 | 22 | 13.0 | 18.0 | 0.00 | 0.00 | 0.00 | 60 | 1017.5 |
| 20260501200505 | 63 | 22 | 9.0 | 14.0 | 0.00 | 0.00 | 0.00 | 60 | 1017.5 |
| 20260501200002 | 63 | 45 | 9.0 | 12.0 | 0.00 | 0.00 | 0.00 | 61 | 1017.5 |
| 20260501195506 | 63 | 22 | 9.0 | 13.0 | 0.00 | 0.00 | 0.00 | 60 | 1017.1 |
| 20260501195006 | 63 | 22 | 9.0 | 12.0 | 0.00 | 0.00 | 0.00 | 61 | 1017.1 |
| 20260501194529 | 63 | 67 | 9.0 | 13.0 | 0.00 | 0.00 | 0.00 | 64 | 1017.1 |
| 20260501194006 | 63 | 22 | 11.0 | 14.0 | 0.00 | 0.00 | 0.00 | 61 | 1017.1 |
| 20260501193502 | 63 | 45 | 10.0 | 13.0 | 0.00 | 0.00 | 0.00 | 62 | 1017.1 |
| 20260501193006 | 63 | 22 | 13.0 | 18.0 | 0.00 | 0.00 | 0.00 | 62 | 1017.1 |
| 20260501192502 | 63 | 22 | 12.0 | 15.0 | 0.00 | 0.00 | 0.00 | 62 | 1017.1 |
| 20260501192006 | 63 | 67 | 10.0 | 13.0 | 0.00 | 0.00 | 0.00 | 60 | 1017.1 |
| 20260501191507 | 63 | 67 | 13.0 | 16.0 | 0.00 | 0.00 | 0.00 | 58 | 1017.1 |
| 20260501191004 | 63 | 67 | 13.0 | 19.0 | 0.00 | 0.00 | 0.00 | 57 | 1017.1 |
| 20260501190507 | 63 | 90 | 11.0 | 14.0 | 0.00 | 0.00 | 0.00 | 56 | 1016.8 |
| 20260501190004 | 64 | 67 | 17.0 | 24.0 | 0.00 | 0.00 | 0.00 | 55 | 1016.8 |
| 20260501185507 | 64 | 67 | 12.0 | 15.0 | 0.00 | 0.00 | 0.00 | 56 | 1017.1 |
| 20260501185004 | 64 | 22 | 12.0 | 17.0 | 0.00 | 0.00 | 0.00 | 57 | 1017.1 |
| 20260501184508 | 64 | 67 | 14.0 | 18.0 | 0.00 | 0.00 | 0.00 | 57 | 1017.1 |
| 20260501184004 | 63 | 67 | 13.0 | 19.0 | 0.00 | 0.00 | 0.00 | 56 | 1017.1 |
| 20260501183507 | 63 | 67 | 13.0 | 17.0 | 0.00 | 0.00 | 0.00 | 57 | 1016.8 |
| 20260501183005 | 64 | 45 | 16.0 | 21.0 | 0.00 | 0.00 | 0.00 | 55 | 1016.8 |
| 20260501182502 | 64 | 67 | 13.0 | 17.0 | 0.00 | 0.00 | 0.00 | 57 | 1017.1 |
| 20260501182006 | 64 | 67 | 12.0 | 20.0 | 0.00 | 0.00 | 0.00 | 56 | 1017.1 |
| 20260501181508 | 64 | 45 | 15.0 | 18.0 | 0.00 | 0.00 | 0.00 | 59 | 1017.1 |
| 20260501181005 | 63 | 67 | 14.0 | 18.0 | 0.00 | 0.00 | 0.00 | 57 | 1017.1 |
| 20260501180503 | 63 | 45 | 16.0 | 22.0 | 0.00 | 0.00 | 0.00 | 59 | 1017.5 |
| 20260501180006 | 63 | 67 | 15.0 | 24.0 | 0.00 | 0.00 | 0.00 | 59 | 1017.5 |
| 20260501175502 | 63 | 67 | 14.0 | 21.0 | 0.00 | 0.00 | 0.00 | 60 | 1017.5 |
| 20260501175006 | 63 | 67 | 14.0 | 18.0 | 0.00 | 0.00 | 0.00 | 61 | 1017.5 |
| 20260501174503 | 63 | 22 | 11.0 | 14.0 | 0.00 | 0.00 | 0.00 | 64 | 1017.1 |
| 20260501174032 | 63 | 45 | 15.0 | 19.0 | 0.00 | 0.00 | 0.00 | 64 | 1017.1 |
| 20260501173502 | 63 | 22 | 10.0 | 13.0 | 0.00 | 0.00 | 0.00 | 67 | 1017.8 |
| 20260501173005 | 63 | 45 | 8.0 | 11.0 | 0.00 | 0.00 | 0.00 | 67 | 1017.8 |
| 20260501172502 | 62 | 67 | 8.0 | 10.0 | 0.00 | 0.00 | 0.00 | 74 | 1018.2 |
| 20260501172006 | 62 | 45 | 15.0 | 19.0 | 0.00 | 0.00 | 0.00 | 69 | 1018.2 |
| 20260501171502 | 62 | 67 | 13.0 | 18.0 | 0.00 | 0.00 | 0.00 | 71 | 1018.5 |
| 20260501171006 | 61 | 67 | 11.0 | 13.0 | 0.00 | 0.00 | 0.00 | 72 | 1018.5 |
| 20260501170502 | 61 | 67 | 9.0 | 13.0 | 0.00 | 0.00 | 0.00 | 75 | 1019.2 |
| 20260501170006 | 61 | 22 | 8.0 | 11.0 | 0.00 | 0.00 | 0.00 | 77 | 1019.2 |
| 20260501165503 | 60 | 45 | 12.0 | 17.0 | 0.00 | 0.00 | 0.00 | 78 | 1019.2 |
| 20260501165006 | 60 | 22 | 7.0 | 8.0 | 0.00 | 0.00 | 0.00 | 81 | 1019.2 |
| 20260501164503 | 59 | 45 | 9.0 | 12.0 | 0.00 | 0.00 | 0.00 | 80 | 1019.2 |
| 20260501164006 | 60 | 67 | 9.0 | 12.0 | 0.00 | 0.00 | 0.00 | 82 | 1019.2 |
| 20260501163503 | 59 | 67 | 9.0 | 12.0 | 0.00 | 0.00 | 0.00 | 84 | 1019.5 |
| 20260501163006 | 59 | 67 | 10.0 | 13.0 | 0.00 | 0.00 | 0.00 | 84 | 1019.5 |
| 20260501162505 | 59 | 67 | 11.0 | 13.0 | 0.00 | 0.00 | 0.00 | 84 | 1019.9 |
| 20260501162007 | 59 | 67 | 9.0 | 10.0 | 0.00 | 0.00 | 0.00 | 84 | 1019.9 |
| 20260501161504 | 59 | 67 | 11.0 | 13.0 | 0.00 | 0.00 | 0.00 | 83 | 1019.9 |
| 20260501161006 | 59 | 90 | 6.0 | 10.0 | 0.00 | 0.00 | 0.00 | 85 | 1019.9 |
| 20260501160504 | 59 | 67 | 9.0 | 12.0 | 0.00 | 0.00 | 0.00 | 84 | 1019.9 |
| 20260501160007 | 58 | 67 | 9.0 | 11.0 | 0.00 | 0.00 | 0.00 | 86 | 1019.9 |
| 20260501155503 | 58 | 45 | 8.0 | 11.0 | 0.00 | 0.00 | 0.00 | 86 | 1020.2 |
| 20260501155006 | 58 | 45 | 8.0 | 11.0 | 0.00 | 0.00 | 0.00 | 88 | 1020.2 |
| 20260501154505 | 58 | 22 | 9.0 | 12.0 | 0.00 | 0.00 | 0.00 | 88 | 1019.9 |
| 20260501154008 | 57 | 45 | 9.0 | 12.0 | 0.00 | 0.00 | 0.00 | 88 | 1019.9 |
| 20260501153531 | 57 | 45 | 10.0 | 12.0 | 0.00 | 0.00 | 0.00 | 88 | 1020.5 |
| 20260501153008 | 57 | 22 | 8.0 | 11.0 | 0.00 | 0.00 | 0.00 | 86 | 1020.5 |
| 20260501152504 | 57 | 67 | 7.0 | 9.0 | 0.00 | 0.00 | 0.00 | 86 | 1019.9 |